Weather History for Fort Lewis, WA

Change the Weather History Date:

Monday, February 11, 2013

  Actual Average Record
Temperature  
Mean Temperature 39 °F -  
Max Temperature 45 °F 47 °F 57 °F (2004)
Min Temperature 33 °F 31 °F 24 °F (2005)
Degree Days  
Heating Degree Days 26    
Moisture  
Dew Point 40 °F    
Average Humidity 91    
Maximum Humidity 100    
Minimum Humidity 71    
Precipitation  
Precipitation 0.03 in - - ()
Sea Level Pressure  
Sea Level Pressure 30.34 in    
Wind  
Wind Speed 3 mph (NW)    
Max Wind Speed 7 mph    
Max Gust Speed -    
Visibility 6 miles    
Events      
Averages and records for this station are not official NWS values.
T = Trace of Precipitation, MM = Missing Value Source: NWS Daily Summary

Daily Weather History Graph

Daily Weather History Graph

Search for Another Location

Airport:

Trip Planner

Search our weather history database for the weather conditions in past years. The results will help you decide how hot, cold, wet, or windy it might be!

Date:

Astronomy

Feb. 11, 2013 Rise Set
Actual Time 7:20 AM PST 5:29 PM PST
Civil Twilight 6:49 AM PST 6:00 PM PST
Nautical Twilight 6:13 AM PST 6:36 PM PST
Astronomical Twilight 5:37 AM PST 7:12 PM PST
Moon 7:38 AM PST (2/11) 7:43 PM PST (2/11)
Length of Visible Light 11h 11m
Length of Day
10h 08m
Waxing Crescent, 3% of the Moon is Illuminated
Feb 11
Waxing Crescent
Feb 17
First Quarter
Feb 25
Full
Mar 4
Last Quarter
Mar 11
New

Hourly Weather History & Observations

Time (PST) Temp. Windchill Dew Point Humidity Pressure Visibility Wind Dir Wind Speed Gust Speed Precip Events Conditions
12:03 AM 41.0 °F - 37.4 °F 87% 30.33 in 10.0 mi WNW 1.2 mph - N/A   Overcast
12:58 AM 40.6 °F - 37.0 °F 87% 30.36 in 10.0 mi WNW 1.2 mph - N/A   Overcast
1:58 AM 40.3 °F - 37.0 °F 88% 30.36 in 10.0 mi Calm Calm - N/A   Overcast
2:58 AM 39.4 °F - 37.0 °F 91% 30.35 in 10.0 mi WNW 2.3 mph - N/A   Overcast
3:58 AM 39.4 °F - 37.2 °F 92% 30.35 in 10.0 mi WNW 2.3 mph - N/A   Overcast
4:08 AM 39.2 °F - 37.4 °F 93% 30.33 in 10.0 mi Calm Calm - N/A   Overcast
4:58 AM 39.0 °F - 37.2 °F 93% 30.36 in 10.0 mi Calm Calm - N/A   Overcast
5:58 AM 37.9 °F - 36.3 °F 94% 30.35 in 10.0 mi WNW 2.3 mph - N/A   Overcast
6:58 AM 36.5 °F - 36.0 °F 98% 30.35 in 10.0 mi WNW 2.3 mph - N/A   Overcast
7:58 AM 33.8 °F 30.8 °F 33.3 °F 98% 30.36 in 10.0 mi WNW 3.5 mph - N/A   Partly Cloudy
8:58 AM 37.4 °F 33.8 °F 37.2 °F 99% 30.36 in 10.0 mi WNW 4.6 mph - N/A   Scattered Clouds
9:58 AM 44.1 °F - 37.8 °F 78% 30.37 in 10.0 mi NW 2.3 mph - N/A   Mostly Cloudy
10:58 AM 44.8 °F 41.0 °F 36.7 °F 73% 30.37 in 10.0 mi WNW 6.9 mph - N/A   Overcast
11:43 AM 44.6 °F 43.1 °F 35.6 °F 71% 30.34 in 10.0 mi WNW 3.5 mph - N/A   Overcast
11:58 AM 45.0 °F 41.8 °F 36.9 °F 73% 30.36 in 10.0 mi WNW 5.8 mph - N/A   Overcast
12:58 PM 45.5 °F 42.5 °F 37.2 °F 73% 30.35 in 10.0 mi NW 5.8 mph - N/A   Overcast
1:58 PM 45.3 °F 44.0 °F 38.3 °F 76% 30.35 in 10.0 mi NW 3.5 mph - N/A   Overcast
2:58 PM 44.4 °F 42.0 °F 40.5 °F 86% 30.34 in 10.0 mi NW 4.6 mph - N/A   Overcast
3:08 PM 44.6 °F 42.2 °F 41.0 °F 87% 30.33 in 10.0 mi NW 4.6 mph - N/A   Overcast
3:23 PM 44.6 °F 43.1 °F 41.0 °F 87% 30.33 in 5.0 mi NW 3.5 mph - N/A   Overcast
3:33 PM 44.6 °F 42.2 °F 42.8 °F 93% 30.33 in 3.0 mi NW 4.6 mph - N/A   Overcast
3:58 PM 43.9 °F - 42.6 °F 95% 30.35 in 6.0 mi NW 2.3 mph - N/A   Overcast
4:58 PM 43.7 °F 41.1 °F 43.2 °F 98% 30.34 in 6.0 mi NW 4.6 mph - N/A   Overcast
5:01 PM 44.6 °F 42.2 °F 42.8 °F 93% 30.32 in 2.0 mi NW 4.6 mph - N/A   Overcast
5:38 PM 44.6 °F 42.2 °F 42.8 °F 93% 30.33 in 1.0 mi NW 4.6 mph - N/A   Overcast
5:58 PM 43.7 °F 42.1 °F 43.3 °F 99% 30.35 in 1.0 mi NW 3.5 mph - 0.01 in   Overcast
6:23 PM 44.6 °F - 42.8 °F 93% 30.33 in 1.0 mi NW 2.3 mph - N/A   Overcast
6:48 PM 44.6 °F - 42.8 °F 93% 30.33 in 1.0 mi Calm Calm - N/A   Overcast
6:58 PM 43.5 °F - 43.3 °F 99% 30.35 in 1.0 mi NW 2.3 mph - N/A   Overcast
7:18 PM 42.8 °F 40.1 °F 42.8 °F 100% 30.33 in 1.0 mi NW 4.6 mph - N/A   Overcast
7:43 PM 42.8 °F 39.3 °F 42.8 °F 100% 30.33 in 1.0 mi NW 5.8 mph - N/A   Overcast
7:58 PM 43.5 °F 40.9 °F 43.2 °F 99% 30.35 in 1.0 mi NW 4.6 mph - 0.01 in   Overcast
8:13 PM 42.8 °F 41.1 °F 42.8 °F 100% 30.33 in 1.0 mi NW 3.5 mph - N/A   Overcast
8:38 PM 42.8 °F 40.1 °F 42.8 °F 100% 30.33 in 1.0 mi NW 4.6 mph - N/A   Overcast
8:58 PM 44.6 °F 41.4 °F 42.8 °F 93% 30.35 in 1.0 mi NW 5.8 mph - 0.01 in   Overcast
9:16 PM 44.6 °F 41.4 °F 42.8 °F 93% 30.31 in 2.0 mi NW 5.8 mph - N/A   Overcast
9:33 PM 44.6 °F 42.2 °F 42.8 °F 93% 30.32 in 2.0 mi NW 4.6 mph - N/A   Overcast
9:37 PM 44.6 °F 43.1 °F 42.8 °F 93% 30.32 in 3.0 mi NW 3.5 mph - N/A   Overcast
9:58 PM 43.9 °F - 43.7 °F 99% 30.35 in 10.0 mi NW 2.3 mph - N/A   Overcast
10:03 PM 44.6 °F - 42.8 °F 93% 30.33 in 10.0 mi NW 2.3 mph - N/A   Overcast
10:58 PM 44.2 °F - 43.9 °F 99% 30.37 in 10.0 mi NW 2.3 mph - N/A   Overcast
11:58 PM 43.9 °F 40.5 °F 43.7 °F 99% 30.37 in 10.0 mi NW 5.8 mph - N/A   Overcast